Crookston, MN

5:14 AM CDT on June 28, 2017 (GMT -0500)
Crookston Municipal-Kirkwood

Weather History for KCKN - April, 2013

Change the Weather History Date:

Sunday, April 28, 2013

  Actual Average Record
Temperature  
Mean Temperature 50 °F -  
Max Temperature 62 °F 59 °F 80 °F (2004)
Min Temperature 39 °F 34 °F 21 °F (2008)
Degree Days  
Heating Degree Days 14    
Moisture  
Dew Point 42 °F    
Average Humidity 68    
Maximum Humidity 87    
Minimum Humidity 44    
Precipitation  
Precipitation 0.00 in - - ()
Sea Level Pressure  
Sea Level Pressure 29.71 in    
Wind  
Wind Speed 15 mph (West)    
Max Wind Speed 23 mph    
Max Gust Speed 29 mph    
Visibility 10 miles    
Events      
Averages and records for this station are not official NWS values.
T = Trace of Precipitation, MM = Missing Value Source: NWS Daily Summary

Daily Weather History Graph

Daily Weather History Graph

Search for Another Location

Airport or City:

Trip Planner

Search our weather history database for the weather conditions in past years. The results will help you decide how hot, cold, wet, or windy it might be!

Date:

Astronomy

Apr. 28, 2013 Rise Set
Actual Time 6:13 AM CDT 8:35 PM CDT
Civil Twilight 5:39 AM CDT 9:09 PM CDT
Nautical Twilight 4:56 AM CDT 9:52 PM CDT
Astronomical Twilight 4:07 AM CDT 10:42 PM CDT
Moon No Moon Rise 8:22 AM CDT
Length of Visible Light 15h 30m
Length of Day
14h 22m
Waning Gibbous, 88% of the Moon is Illuminated
Apr 28
Waning Gibbous
May 2
Last Quarter
May 9
New
May 17
First Quarter
May 24
Full

Hourly Weather History & Observations

Time (CDT) Temp. Windchill Dew Point Humidity Pressure Visibility Wind Dir Wind Speed Gust Speed Precip Events Conditions
12:14 AM 57.2 °F - 48.2 °F 72% 29.69 in 10.0 mi South 17.3 mph - N/A   Clear
12:34 AM 57.2 °F - 46.4 °F 67% 29.68 in 10.0 mi South 18.4 mph - N/A   Clear
12:55 AM 55.4 °F - 46.4 °F 72% 29.68 in 10.0 mi South 17.3 mph - N/A   Clear
1:14 AM 55.4 °F - 44.6 °F 67% 29.67 in 10.0 mi South 18.4 mph - N/A   Clear
1:34 AM 55.4 °F - 44.6 °F 67% 29.66 in 10.0 mi South 18.4 mph - N/A   Clear
1:55 AM 53.6 °F - 44.6 °F 72% 29.65 in 10.0 mi South 17.3 mph - N/A   Clear
2:14 AM 53.6 °F - 44.6 °F 72% 29.64 in 10.0 mi South 16.1 mph - N/A   Clear
2:34 AM 53.6 °F - 44.6 °F 72% 29.64 in 10.0 mi South 18.4 mph - N/A   Clear
2:55 AM 53.6 °F - 44.6 °F 72% 29.63 in 10.0 mi South 19.6 mph - N/A   Clear
3:14 AM 53.6 °F - 44.6 °F 72% 29.63 in 10.0 mi South 16.1 mph - N/A   Clear
3:34 AM 51.8 °F - 44.6 °F 76% 29.62 in 10.0 mi South 17.3 mph - N/A   Clear
3:55 AM 51.8 °F - 44.6 °F 76% 29.63 in 10.0 mi South 13.8 mph 23.0 mph N/A   Clear
4:14 AM 51.8 °F - 44.6 °F 76% 29.62 in 10.0 mi South 13.8 mph - N/A   Clear
4:34 AM 51.8 °F - 44.6 °F 76% 29.63 in 10.0 mi SSW 8.1 mph - N/A   Clear
4:55 AM 50.0 °F - 44.6 °F 82% 29.63 in 10.0 mi South 9.2 mph - N/A   Clear
5:14 AM 48.2 °F - 42.8 °F 82% 29.63 in 10.0 mi South 8.1 mph - N/A   Clear
5:35 AM 48.2 °F - 42.8 °F 82% 29.62 in 10.0 mi South 11.5 mph - N/A   Clear
5:55 AM 48.2 °F - 42.8 °F 82% 29.63 in 10.0 mi South 10.4 mph - N/A   Clear
6:14 AM 48.2 °F - 42.8 °F 82% 29.62 in 10.0 mi South 9.2 mph - N/A   Clear
6:35 AM 46.4 °F 41.9 °F 42.8 °F 87% 29.62 in 10.0 mi South 9.2 mph - N/A   Scattered Clouds
6:55 AM 48.2 °F - 42.8 °F 82% 29.61 in 10.0 mi South 10.4 mph - N/A   Scattered Clouds
7:14 AM 48.2 °F - 42.8 °F 82% 29.62 in 10.0 mi South 10.4 mph - N/A   Clear
7:35 AM 50.0 °F - 44.6 °F 82% 29.62 in 10.0 mi South 12.7 mph - N/A   Clear
8:14 AM 50.0 °F - 44.6 °F 82% 29.61 in 10.0 mi South 10.4 mph - N/A   Clear
8:35 AM 51.8 °F - 44.6 °F 76% 29.61 in 10.0 mi South 11.5 mph - N/A   Clear
8:55 AM 51.8 °F - 46.4 °F 82% 29.61 in 10.0 mi South 12.7 mph - N/A   Clear
9:14 AM 53.6 °F - 46.4 °F 77% 29.61 in 10.0 mi South 13.8 mph - N/A   Clear
9:35 AM 53.6 °F - 46.4 °F 77% 29.61 in 10.0 mi South 12.7 mph - N/A   Clear
9:55 AM 53.6 °F - 46.4 °F 77% 29.61 in 10.0 mi South 15.0 mph - N/A   Clear
10:14 AM 55.4 °F - 48.2 °F 77% 29.62 in 10.0 mi SSW 16.1 mph - N/A   Clear
10:35 AM 55.4 °F - 46.4 °F 72% 29.63 in 10.0 mi SW 12.7 mph - N/A   Clear
10:55 AM 55.4 °F - 46.4 °F 72% 29.64 in 10.0 mi West 8.1 mph - N/A   Clear
11:14 AM 57.2 °F - 48.2 °F 72% 29.64 in 10.0 mi WNW 8.1 mph - N/A   Clear
11:35 AM 57.2 °F - 48.2 °F 72% 29.64 in 10.0 mi NNW 8.1 mph - N/A   Clear
11:54 AM 60.8 °F - 44.6 °F 55% - 10.0 mi NW 12.7 mph - N/A   Clear
12:14 PM 60.8 °F - 46.4 °F 59% 29.65 in 10.0 mi NW 12.7 mph - N/A   Clear
12:35 PM 60.8 °F - 46.4 °F 59% 29.66 in 10.0 mi NW 10.4 mph - N/A   Clear
12:54 PM 60.8 °F - 44.6 °F 55% 29.66 in 10.0 mi NNW 15.0 mph 18.4 mph N/A   Clear
1:15 PM 60.8 °F - 46.4 °F 59% 29.68 in 10.0 mi NNW 15.0 mph 23.0 mph N/A   Clear
1:35 PM 59.0 °F - 44.6 °F 59% 29.68 in 10.0 mi North 17.3 mph - N/A   Clear
1:54 PM 59.0 °F - 42.8 °F 55% 29.70 in 10.0 mi NNW 18.4 mph 26.5 mph N/A   Clear
2:15 PM 57.2 °F - 44.6 °F 63% 29.71 in 10.0 mi North 18.4 mph - N/A   Clear
2:35 PM 60.8 °F - 44.6 °F 55% 29.71 in 10.0 mi NNW 18.4 mph - N/A   Clear
2:54 PM 62.6 °F - 44.6 °F 52% 29.73 in 10.0 mi NNW 15.0 mph - N/A   Scattered Clouds
3:15 PM 60.8 °F - 44.6 °F 55% 29.74 in 10.0 mi NNW 15.0 mph 24.2 mph N/A   Scattered Clouds
3:35 PM 60.8 °F - 46.4 °F 59% 29.74 in 10.0 mi NW 18.4 mph - N/A   Clear
3:54 PM 60.8 °F - 44.6 °F 55% 29.75 in 10.0 mi NW 19.6 mph 23.0 mph N/A   Clear
4:15 PM 59.0 °F - 44.6 °F 59% 29.75 in 10.0 mi NW 18.4 mph - N/A   Clear
4:34 PM 59.0 °F - 42.8 °F 55% 29.75 in 10.0 mi NW 19.6 mph 25.3 mph N/A   Clear
4:54 PM 60.8 °F - 42.8 °F 52% 29.76 in 10.0 mi NW 19.6 mph 26.5 mph N/A   Clear
5:15 PM 60.8 °F - 41.0 °F 48% 29.76 in 10.0 mi NW 20.7 mph 26.5 mph N/A   Clear
5:34 PM 60.8 °F - 41.0 °F 48% 29.77 in 10.0 mi NW 21.9 mph 27.6 mph N/A   Clear
5:55 PM 57.2 °F - 39.2 °F 51% 29.78 in 10.0 mi NW 20.7 mph - N/A   Clear
6:15 PM 57.2 °F - 41.0 °F 55% 29.78 in 10.0 mi NW 19.6 mph 24.2 mph N/A   Clear
6:34 PM 57.2 °F - 41.0 °F 55% 29.79 in 10.0 mi NW 18.4 mph 23.0 mph N/A   Clear
6:55 PM 55.4 °F - 33.8 °F 44% 29.80 in 10.0 mi NW 23.0 mph 27.6 mph N/A   Clear
7:14 PM 53.6 °F - 33.8 °F 47% 29.80 in 10.0 mi NW 20.7 mph 28.8 mph N/A   Clear
7:34 PM 53.6 °F - 35.6 °F 51% 29.81 in 10.0 mi NW 16.1 mph - N/A   Clear
7:55 PM 51.8 °F - 35.6 °F 54% 29.81 in 10.0 mi NW 18.4 mph 21.9 mph N/A   Clear
8:15 PM 50.0 °F - 35.6 °F 58% 29.82 in 10.0 mi NW 16.1 mph - N/A   Clear
8:34 PM 48.2 °F - 35.6 °F 62% 29.83 in 10.0 mi NW 11.5 mph - N/A   Clear
8:55 PM 46.4 °F 41.5 °F 35.6 °F 66% 29.84 in 10.0 mi WNW 10.4 mph - N/A   Clear
9:14 PM 44.6 °F 38.8 °F 35.6 °F 71% 29.84 in 10.0 mi NW 11.5 mph - N/A   Clear
9:34 PM 44.6 °F 38.1 °F 35.6 °F 71% 29.84 in 10.0 mi NW 13.8 mph - N/A   Clear
9:55 PM 42.8 °F 36.6 °F 35.6 °F 76% 29.85 in 10.0 mi NW 11.5 mph - N/A   Clear
10:14 PM 42.8 °F 36.2 °F 33.8 °F 70% 29.85 in 10.0 mi NW 12.7 mph - N/A   Clear
10:34 PM 42.8 °F 36.6 °F 33.8 °F 70% 29.85 in 10.0 mi NNW 11.5 mph - N/A   Clear
10:55 PM 41.0 °F 35.2 °F 33.8 °F 76% 29.86 in 10.0 mi NNW 9.2 mph - N/A   Clear
11:14 PM 39.2 °F 32.5 °F 33.8 °F 81% 29.86 in 10.0 mi NW 10.4 mph - N/A   Clear
11:34 PM 39.2 °F 33.6 °F 33.8 °F 81% 29.86 in 10.0 mi NW 8.1 mph - N/A   Clear
11:55 PM 39.2 °F 31.6 °F 33.8 °F 81% 29.86 in 10.0 mi NW 12.7 mph - N/A   Clear